Date String (YYYY-MM-DD hh:mm:ss) UTC,Instrument flags,Ambient pressure (hPa),Sample flow (lpm),Bypass flow (lpm),Sample temperature (°C),Ambient temperature (°C),ASC tube jacket temperature (°C),LED temperature (°C),Box temperature (°C),Sample RH (%),Span deviation,Mass concentration (μg/m³),Mass concentration (μg/m³),Mass concentration (μg/m³)
DateTimeUTC,F1_M11,P_M11,Q1_M11,Q2_M11,T1_M11,T2_M11,T3_M11,T4_M11,T5_M11,U1_M11,ZSPAN_M11,X0_M11,X2_M11,X1_M11
2021-10-20 05:00:00,,0828.1,5.00,0.00,27.2,26.2,00.0,36.3,29.0,16.5,0000.0,0006.32,0002.43,0001.62
2021-10-20 05:01:00,,0828.0,4.99,0.00,27.2,26.2,00.0,36.3,29.0,16.5,0000.0,0006.15,0002.45,0001.63
2021-10-20 05:02:00,,0828.1,5.00,0.00,27.2,26.2,00.0,36.3,29.0,16.5,0000.0,0007.57,0002.47,0001.63
2021-10-20 05:03:00,,0828.1,5.00,0.00,27.2,26.2,00.0,36.3,29.0,16.5,0000.0,0007.63,0002.46,0001.63
2021-10-20 05:04:00,,0828.1,5.00,0.00,27.2,26.2,00.0,36.3,29.0,16.5,0000.0,0007.62,0002.42,0001.63
2021-10-20 05:05:00,,0828.1,5.01,0.00,27.2,26.2,00.0,36.3,28.9,16.6,0000.0,0008.26,0002.41,0001.62
2021-10-20 05:06:00,,0828.1,5.00,0.00,27.2,26.2,00.0,36.3,28.9,16.6,0000.0,0008.18,0002.42,0001.62
2021-10-20 05:07:00,,0828.1,5.00,0.00,27.2,26.2,00.0,36.3,28.9,16.6,0000.0,0008.09,0002.37,0001.59
2021-10-20 05:08:00,,0828.1,5.00,0.00,27.2,26.1,00.0,36.3,28.9,16.6,0000.0,0007.80,0002.27,0001.57
2021-10-20 05:09:00,,0828.1,5.00,0.00,27.1,26.1,00.0,36.3,28.9,16.6,0000.0,0007.49,0002.17,0001.55
2021-10-20 05:10:00,,0828.0,5.01,0.00,27.2,26.2,00.0,36.3,28.9,16.6,0000.0,0007.56,0002.16,0001.52
2021-10-20 05:11:00,,0828.0,5.00,0.00,27.1,26.1,00.0,36.3,28.9,16.6,0000.0,0008.14,0002.14,0001.49
2021-10-20 05:12:00,,0828.0,5.00,0.00,27.1,26.1,00.0,36.3,28.9,16.6,0000.0,0008.48,0002.09,0001.45
2021-10-20 05:13:00,,0828.0,4.99,0.00,27.1,26.1,00.0,36.3,28.9,16.6,0000.0,0007.86,0002.01,0001.41
2021-10-20 05:14:00,,0828.0,5.00,0.00,27.1,26.1,00.0,36.3,28.9,16.6,0000.0,0007.32,0001.92,0001.39
2021-10-20 05:15:00,,0828.0,5.00,0.00,27.1,26.1,00.0,36.2,28.9,16.6,0000.0,0007.32,0001.90,0001.37
2021-10-20 05:16:00,,0828.0,5.00,0.00,27.1,26.1,00.0,36.2,28.9,16.6,0000.0,0006.10,0001.92,0001.36
2021-10-20 05:17:00,,0828.0,5.01,0.00,27.1,26.1,00.0,36.2,28.8,16.7,0000.0,0005.71,0001.94,0001.35
2021-10-20 05:18:00,,0828.0,4.99,0.00,27.1,26.1,00.0,36.2,28.8,16.7,0000.0,0005.57,0001.96,0001.36
2021-10-20 05:19:00,,0828.1,5.00,0.00,27.0,26.1,00.0,36.2,28.8,16.7,0000.0,0005.51,0002.01,0001.38
2021-10-20 05:20:00,,0828.0,5.00,0.00,27.0,26.0,00.0,36.2,28.8,16.8,0000.0,0005.68,0002.07,0001.41
2021-10-20 05:21:00,,0828.0,5.00,0.00,27.0,26.0,00.0,36.2,28.8,16.8,0000.0,0005.52,0002.09,0001.44
2021-10-20 05:22:00,,0828.0,5.00,0.00,27.0,26.0,00.0,36.2,28.8,16.9,0000.0,0004.56,0002.09,0001.47
2021-10-20 05:23:00,,0828.0,5.00,0.00,27.0,26.0,00.0,36.2,28.8,16.9,0000.0,0003.89,0002.15,0001.51
2021-10-20 05:24:00,,0828.0,5.00,0.00,27.0,26.0,00.0,36.2,28.7,16.9,0000.0,0004.09,0002.24,0001.54
2021-10-20 05:25:00,,0828.0,5.00,0.00,27.0,26.0,00.0,36.1,28.7,16.9,0000.0,0004.18,0002.26,0001.55
2021-10-20 05:26:00,,0828.0,5.01,0.00,27.0,25.9,00.0,36.1,28.7,16.9,0000.0,0004.31,0002.29,0001.55
2021-10-20 05:27:00,,0828.0,4.99,0.00,26.9,25.9,00.0,36.1,28.7,16.9,0000.0,0004.16,0002.24,0001.57
2021-10-20 05:28:00,,0828.0,5.01,0.00,26.9,25.9,00.0,36.1,28.7,17.0,0000.0,0004.12,0002.24,0001.61
2021-10-20 05:29:00,,0828.0,5.00,0.00,26.9,25.9,00.0,36.1,28.7,17.0,0000.0,0004.31,0002.28,0001.63
2021-10-20 05:30:00,,0828.0,5.00,0.00,26.9,25.9,00.0,36.1,28.7,17.0,0000.0,0004.36,0002.30,0001.64
2021-10-20 05:31:00,,0828.0,5.01,0.00,26.9,25.9,00.0,36.1,28.7,17.0,0000.0,0004.53,0002.34,0001.65
2021-10-20 05:32:00,,0828.0,5.02,0.00,26.9,25.9,00.0,36.1,28.7,17.0,0000.0,0004.68,0002.41,0001.67
2021-10-20 05:33:00,,0828.0,4.99,0.00,26.9,25.9,00.0,36.1,28.6,17.0,0000.0,0004.98,0002.53,0001.69
2021-10-20 05:34:00,,0827.9,5.00,0.00,26.9,25.9,00.0,36.0,28.6,17.0,0000.0,0004.84,0002.52,0001.69
2021-10-20 05:35:00,,0828.1,5.01,0.00,26.8,25.8,00.0,36.0,28.6,17.0,0000.0,0004.69,0002.48,0001.68
2021-10-20 05:36:00,,0827.9,5.01,0.00,26.8,25.8,00.0,36.0,28.5,17.0,0000.0,0004.73,0002.51,0001.68
2021-10-20 05:37:00,,0828.0,4.99,0.00,26.8,25.7,00.0,36.0,28.5,17.1,0000.0,0005.96,0002.56,0001.69
2021-10-20 05:38:00,,0828.0,4.99,0.00,26.7,25.7,00.0,36.0,28.4,17.1,0000.0,0006.13,0002.61,0001.69
2021-10-20 05:39:00,,0828.0,4.99,0.00,26.6,25.6,00.0,35.9,28.3,17.1,0000.0,0006.20,0002.62,0001.68
2021-10-20 05:40:00,,0828.0,5.00,0.00,26.6,25.6,00.0,35.9,28.3,17.2,0000.0,0006.74,0002.61,0001.66
2021-10-20 05:41:00,,0828.0,5.01,0.00,26.6,25.5,00.0,35.9,28.3,17.3,0000.0,0007.25,0002.65,0001.64
2021-10-20 05:42:00,,0828.0,5.01,0.00,26.5,25.5,00.0,35.9,28.3,17.3,0000.0,0007.22,0002.62,0001.62
2021-10-20 05:43:00,,0828.0,5.00,0.00,26.5,25.5,00.0,35.8,28.3,17.2,0000.0,0007.22,0002.61,0001.61
2021-10-20 05:44:00,,0828.1,4.99,0.00,26.6,25.6,00.0,35.8,28.3,17.2,0000.0,0007.04,0002.57,0001.59
2021-10-20 05:45:00,,0828.1,5.00,0.00,26.6,25.6,00.0,35.8,28.3,17.1,0000.0,0006.98,0002.55,0001.60
2021-10-20 05:46:00,,0828.1,5.01,0.00,26.6,25.6,00.0,35.8,28.3,17.1,0000.0,0007.33,0002.59,0001.60
2021-10-20 05:47:00,,0828.0,4.99,0.00,26.6,25.6,00.0,35.8,28.3,17.2,0000.0,0007.91,0002.59,0001.62
2021-10-20 05:48:00,,0828.0,5.01,0.00,26.6,25.6,00.0,35.8,28.4,17.2,0000.0,0007.30,0002.56,0001.62
2021-10-20 05:49:00,,0828.0,5.00,0.00,26.6,25.6,00.0,35.8,28.4,17.2,0000.0,0007.35,0002.57,0001.62
2021-10-20 05:50:00,,0828.0,5.01,0.00,26.6,25.6,00.0,35.8,28.4,17.2,0000.0,0007.44,0002.56,0001.62
2021-10-20 05:51:00,,0828.0,5.01,0.00,26.6,25.6,00.0,35.7,28.3,17.2,0000.0,0007.00,0002.53,0001.63
2021-10-20 05:52:00,,0828.0,5.00,0.00,26.5,25.6,00.0,35.7,28.3,17.2,0000.0,0006.26,0002.45,0001.64
2021-10-20 05:53:00,,0828.0,5.00,0.00,26.5,25.6,00.0,35.7,28.3,17.2,0000.0,0006.34,0002.48,0001.66
2021-10-20 05:54:00,,0828.0,4.99,0.00,26.5,25.6,00.0,35.7,28.3,17.2,0000.0,0006.35,0002.46,0001.67
2021-10-20 05:55:00,,0827.9,5.00,0.00,26.5,25.6,00.0,35.7,28.2,17.2,0000.0,0007.10,0002.38,0001.67
2021-10-20 05:56:00,,0828.0,5.00,0.00,26.4,25.5,00.0,35.7,28.2,17.3,0000.0,0007.41,0002.45,0001.67
2021-10-20 05:57:00,,0827.9,5.00,0.00,26.4,25.5,00.0,35.7,28.2,17.3,0000.0,0007.32,0002.48,0001.68
2021-10-20 05:58:00,,0827.9,5.00,0.00,26.4,25.5,00.0,35.7,28.2,17.3,0000.0,0006.56,0002.50,0001.69
2021-10-20 05:59:00,,0828.0,5.01,0.00,26.4,25.5,00.0,35.6,28.2,17.4,0000.0,0006.62,0002.51,0001.69
